N538TW KSBY-KFFA

Flight info

Callsign N538TW
Flight time 0h 48m
Altitude 3000
Route VFR
Aircraft B58T/L-SDFGRY/C

Departure

Time 2026-05-07 23:14
Airport Salisbury Ocean City Wicomico Regional Airport (KSBY)

Arrival

Time 2026-05-08 00:03
Airport First Flight Airport (KFFA)
Time Latitude Longitude Altitude Speed Heading
2026-05-07 23:07 38.34377 -75.51596 53 ft 0 kts 216°
2026-05-07 23:11 38.34385 -75.51599 53 ft 8 kts 89°
2026-05-07 23:11 38.34356 -75.51483 53 ft 16 kts 124°
2026-05-07 23:12 38.34281 -75.51346 53 ft 20 kts 107°
2026-05-07 23:12 38.34288 -75.51188 54 ft 13 kts 84°
2026-05-07 23:12 38.34350 -75.51094 53 ft 18 kts 36°
2026-05-07 23:12 38.34484 -75.50968 53 ft 29 kts 38°
2026-05-07 23:13 38.34582 -75.50834 53 ft 16 kts 89°
2026-05-07 23:13 38.34517 -75.50704 53 ft 20 kts 134°
2026-05-07 23:13 38.34361 -75.50778 52 ft 48 kts 216°
2026-05-07 23:13 38.33931 -75.51182 59 ft 99 kts 221°
2026-05-07 23:14 38.33336 -75.51732 247 ft 109 kts 222°
2026-05-07 23:14 38.32956 -75.52167 399 ft 113 kts 227°
2026-05-07 23:14 38.32344 -75.52831 653 ft 117 kts 217°
2026-05-07 23:14 38.31573 -75.53219 899 ft 121 kts 198°
2026-05-07 23:15 38.30770 -75.53542 1169 ft 122 kts 199°
2026-05-07 23:15 38.29928 -75.53875 1399 ft 136 kts 198°
2026-05-07 23:15 38.28948 -75.54267 1414 ft 157 kts 199°
2026-05-07 23:15 38.27863 -75.54698 1411 ft 168 kts 199°
2026-05-07 23:16 38.26736 -75.55139 1407 ft 171 kts 199°
2026-05-07 23:16 38.25596 -75.55587 1456 ft 170 kts 198°
2026-05-07 23:16 38.24462 -75.56032 1498 ft 172 kts 198°
2026-05-07 23:16 38.23310 -75.56484 1503 ft 174 kts 198°
2026-05-07 23:17 38.22117 -75.56748 1501 ft 175 kts 182°
2026-05-07 23:17 38.20894 -75.56710 1504 ft 177 kts 179°
2026-05-07 23:17 38.19671 -75.56646 1564 ft 175 kts 179°
2026-05-07 23:17 38.18451 -75.56584 1546 ft 176 kts 179°
2026-05-07 23:18 38.17209 -75.56516 1508 ft 179 kts 178°
2026-05-07 23:18 38.15969 -75.56452 1512 ft 179 kts 178°
2026-05-07 23:18 38.14721 -75.56396 1503 ft 180 kts 178°
2026-05-07 23:18 38.13469 -75.56415 1501 ft 180 kts 192°
2026-05-07 23:19 38.12284 -75.56914 1512 ft 179 kts 202°
2026-05-07 23:19 38.11114 -75.57471 1513 ft 179 kts 201°
2026-05-07 23:19 38.09962 -75.58019 1513 ft 179 kts 202°
2026-05-07 23:19 38.08773 -75.58577 1514 ft 180 kts 201°
2026-05-07 23:20 38.07613 -75.59129 1509 ft 181 kts 201°
2026-05-07 23:20 38.06441 -75.59689 1509 ft 180 kts 201°
2026-05-07 23:20 38.05295 -75.60231 1551 ft 174 kts 201°
2026-05-07 23:20 38.04155 -75.60756 1620 ft 170 kts 201°
2026-05-07 23:21 38.03067 -75.61254 1831 ft 163 kts 201°
2026-05-07 23:21 38.02009 -75.61736 2046 ft 160 kts 201°
2026-05-07 23:21 38.00968 -75.62210 2265 ft 159 kts 202°
2026-05-07 23:21 37.99928 -75.62680 2485 ft 158 kts 201°
2026-05-07 23:22 37.98896 -75.63145 2718 ft 157 kts 201°
2026-05-07 23:22 37.97863 -75.63612 2929 ft 158 kts 201°
2026-05-07 23:22 37.96807 -75.64090 2998 ft 166 kts 201°
2026-05-07 23:22 37.95697 -75.64595 3006 ft 172 kts 201°
2026-05-07 23:23 37.94562 -75.65114 3010 ft 175 kts 201°
2026-05-07 23:23 37.93357 -75.65360 3009 ft 178 kts 180°
2026-05-07 23:23 37.92114 -75.65284 3009 ft 180 kts 179°
2026-05-07 23:23 37.90874 -75.65197 3008 ft 176 kts 179°
2026-05-07 23:24 37.89655 -75.65108 3008 ft 175 kts 179°
2026-05-07 23:24 37.88431 -75.65021 3007 ft 177 kts 179°
2026-05-07 23:24 37.87191 -75.64933 3010 ft 179 kts 179°
2026-05-07 23:24 37.85947 -75.64846 3010 ft 180 kts 179°
2026-05-07 23:25 37.84693 -75.64759 3009 ft 181 kts 179°
2026-05-07 23:25 37.83434 -75.64673 3009 ft 181 kts 179°
2026-05-07 23:25 37.82176 -75.64588 3010 ft 181 kts 179°
2026-05-07 23:25 37.80885 -75.64500 2997 ft 191 kts 179°
2026-05-07 23:26 37.79534 -75.64411 2999 ft 197 kts 179°
2026-05-07 23:26 37.78152 -75.64321 3002 ft 200 kts 179°
2026-05-07 23:26 37.76755 -75.64229 3007 ft 202 kts 179°
2026-05-07 23:26 37.75350 -75.64136 3010 ft 203 kts 179°
2026-05-07 23:27 37.72525 -75.63952 3008 ft 203 kts 179°
2026-05-07 23:27 37.71130 -75.63861 3008 ft 203 kts 179°
2026-05-07 23:27 37.69698 -75.63771 3008 ft 204 kts 179°
2026-05-07 23:28 37.68302 -75.63683 3008 ft 204 kts 179°
2026-05-07 23:28 37.66888 -75.63594 3009 ft 204 kts 179°
2026-05-07 23:28 37.65468 -75.63505 3007 ft 204 kts 179°
2026-05-07 23:28 37.64050 -75.63414 3007 ft 204 kts 179°
2026-05-07 23:29 37.62633 -75.63322 3008 ft 204 kts 179°
2026-05-07 23:29 37.61217 -75.63229 3007 ft 204 kts 179°
2026-05-07 23:29 37.59804 -75.63135 3006 ft 203 kts 179°
2026-05-07 23:29 37.58391 -75.63042 3006 ft 203 kts 179°
2026-05-07 23:30 37.56979 -75.62952 3006 ft 203 kts 179°
2026-05-07 23:30 37.55586 -75.63090 3001 ft 201 kts 200°
2026-05-07 23:30 37.54325 -75.63817 3004 ft 200 kts 208°
2026-05-07 23:30 37.53081 -75.64617 3005 ft 200 kts 208°
2026-05-07 23:31 37.51844 -75.65418 3006 ft 200 kts 209°
2026-05-07 23:31 37.50606 -75.66220 3007 ft 200 kts 208°
2026-05-07 23:31 37.49366 -75.67024 3006 ft 200 kts 208°
2026-05-07 23:31 37.48127 -75.67829 3008 ft 200 kts 209°
2026-05-07 23:32 37.46887 -75.68635 3009 ft 201 kts 209°
2026-05-07 23:32 37.45646 -75.69442 3008 ft 201 kts 208°
2026-05-07 23:32 37.44390 -75.70254 2992 ft 208 kts 209°
2026-05-07 23:32 37.43065 -75.71075 2939 ft 213 kts 209°
2026-05-07 23:33 37.41757 -75.71872 2992 ft 212 kts 209°
2026-05-07 23:33 37.40424 -75.72688 2993 ft 214 kts 209°
2026-05-07 23:33 37.39087 -75.73507 2993 ft 213 kts 209°
2026-05-07 23:33 37.37757 -75.74326 2993 ft 213 kts 209°
2026-05-07 23:34 37.36428 -75.75138 2993 ft 212 kts 208°
2026-05-07 23:34 37.35103 -75.75954 2992 ft 212 kts 209°
2026-05-07 23:34 37.33779 -75.76768 2992 ft 212 kts 209°
2026-05-07 23:34 37.32455 -75.77579 2993 ft 212 kts 208°
2026-05-07 23:35 37.31129 -75.78399 2997 ft 213 kts 209°
2026-05-07 23:35 37.29803 -75.79214 2948 ft 210 kts 207°
2026-05-07 23:35 37.28537 -75.80019 3083 ft 199 kts 208°
2026-05-07 23:35 37.27310 -75.80825 3085 ft 199 kts 209°
2026-05-07 23:36 37.26077 -75.81642 3006 ft 201 kts 209°
2026-05-07 23:36 37.24847 -75.82461 3007 ft 199 kts 209°
2026-05-07 23:36 37.23624 -75.83276 3006 ft 199 kts 209°
2026-05-07 23:36 37.22403 -75.84088 3005 ft 198 kts 209°
2026-05-07 23:37 37.21186 -75.84898 3004 ft 198 kts 209°
2026-05-07 23:37 37.19971 -75.85707 3003 ft 197 kts 209°
2026-05-07 23:37 37.18760 -75.86513 3003 ft 197 kts 209°
2026-05-07 23:37 37.17548 -75.87319 3002 ft 197 kts 209°
2026-05-07 23:38 37.16340 -75.88124 3002 ft 197 kts 209°
2026-05-07 23:38 37.15131 -75.88929 3002 ft 197 kts 209°
2026-05-07 23:38 37.13922 -75.89733 3001 ft 197 kts 209°
2026-05-07 23:38 37.12714 -75.90536 3001 ft 197 kts 209°
2026-05-07 23:39 37.11506 -75.91341 3001 ft 197 kts 209°
2026-05-07 23:39 37.10299 -75.92145 3002 ft 197 kts 209°
2026-05-07 23:39 37.09089 -75.92952 3001 ft 197 kts 209°
2026-05-07 23:39 37.07876 -75.93758 3002 ft 198 kts 209°
2026-05-07 23:40 37.06657 -75.94568 3004 ft 199 kts 209°
2026-05-07 23:40 37.05431 -75.95383 3005 ft 200 kts 209°
2026-05-07 23:40 37.04203 -75.96200 3006 ft 200 kts 209°
2026-05-07 23:40 37.02991 -75.97006 3007 ft 200 kts 209°
2026-05-07 23:41 37.01747 -75.97836 3007 ft 200 kts 209°
2026-05-07 23:41 37.00534 -75.98642 3007 ft 200 kts 209°
2026-05-07 23:41 36.99302 -75.99461 3007 ft 200 kts 209°
2026-05-07 23:41 36.98074 -76.00279 3007 ft 200 kts 209°
2026-05-07 23:42 36.96844 -76.01099 3008 ft 200 kts 209°
2026-05-07 23:42 36.95605 -76.01898 3005 ft 201 kts 202°
2026-05-07 23:42 36.94225 -76.02031 3001 ft 202 kts 172°
2026-05-07 23:42 36.92842 -76.01697 3004 ft 203 kts 169°
2026-05-07 23:43 36.91462 -76.01335 3006 ft 203 kts 169°
2026-05-07 23:43 36.90082 -76.00969 3007 ft 203 kts 169°
2026-05-07 23:43 36.88700 -76.00601 3007 ft 203 kts 169°
2026-05-07 23:43 36.87319 -76.00235 3008 ft 203 kts 169°
2026-05-07 23:44 36.85939 -75.99868 3008 ft 203 kts 169°
2026-05-07 23:44 36.84559 -75.99502 3008 ft 203 kts 169°
2026-05-07 23:44 36.83175 -75.99133 3008 ft 203 kts 169°
2026-05-07 23:44 36.81793 -75.98765 3008 ft 203 kts 169°
2026-05-07 23:45 36.80416 -75.98398 3009 ft 203 kts 169°
2026-05-07 23:45 36.79031 -75.98031 3009 ft 203 kts 169°
2026-05-07 23:45 36.77652 -75.97664 3009 ft 203 kts 169°
2026-05-07 23:45 36.76265 -75.97295 3009 ft 203 kts 169°
2026-05-07 23:46 36.74881 -75.96926 3009 ft 203 kts 169°
2026-05-07 23:46 36.73504 -75.96561 3009 ft 203 kts 169°
2026-05-07 23:46 36.72120 -75.96193 3009 ft 203 kts 169°
2026-05-07 23:46 36.70740 -75.95827 3008 ft 203 kts 169°
2026-05-07 23:47 36.69358 -75.95459 3008 ft 203 kts 169°
2026-05-07 23:47 36.67976 -75.95092 3009 ft 203 kts 169°
2026-05-07 23:47 36.66596 -75.94727 3009 ft 203 kts 169°
2026-05-07 23:47 36.65213 -75.94360 3009 ft 203 kts 169°
2026-05-07 23:48 36.63832 -75.93994 3009 ft 203 kts 169°
2026-05-07 23:48 36.62451 -75.93628 3009 ft 203 kts 169°
2026-05-07 23:48 36.61071 -75.93261 3009 ft 203 kts 169°
2026-05-07 23:48 36.59688 -75.92894 3009 ft 203 kts 169°
2026-05-07 23:49 36.58308 -75.92529 3009 ft 203 kts 169°
2026-05-07 23:49 36.56921 -75.92163 3009 ft 203 kts 169°
2026-05-07 23:49 36.55540 -75.91796 3009 ft 203 kts 169°
2026-05-07 23:49 36.54157 -75.91429 3009 ft 203 kts 169°
2026-05-07 23:50 36.52777 -75.91063 3009 ft 203 kts 169°
2026-05-07 23:50 36.51397 -75.90699 3009 ft 203 kts 169°
2026-05-07 23:50 36.50013 -75.90332 3009 ft 203 kts 169°
2026-05-07 23:50 36.48632 -75.89966 3009 ft 203 kts 169°
2026-05-07 23:51 36.47250 -75.89599 3010 ft 203 kts 169°
2026-05-07 23:51 36.45886 -75.89240 3008 ft 203 kts 169°
2026-05-07 23:51 36.44501 -75.88874 3008 ft 203 kts 169°
2026-05-07 23:51 36.43120 -75.88509 3007 ft 203 kts 169°
2026-05-07 23:52 36.41739 -75.88143 3008 ft 203 kts 169°
2026-05-07 23:52 36.40357 -75.87777 3008 ft 203 kts 169°
2026-05-07 23:52 36.38981 -75.87414 3008 ft 203 kts 169°
2026-05-07 23:52 36.37591 -75.87047 3008 ft 203 kts 169°
2026-05-07 23:53 36.36210 -75.86682 3008 ft 203 kts 168°
2026-05-07 23:53 36.34844 -75.86224 3008 ft 203 kts 164°
2026-05-07 23:53 36.33490 -75.85715 3008 ft 203 kts 164°
2026-05-07 23:53 36.32136 -75.85204 3008 ft 203 kts 164°
2026-05-07 23:54 36.30784 -75.84693 3008 ft 203 kts 164°
2026-05-07 23:54 36.29431 -75.84179 3008 ft 203 kts 164°
2026-05-07 23:54 36.28077 -75.83666 3008 ft 203 kts 164°
2026-05-07 23:54 36.26723 -75.83152 3008 ft 204 kts 164°
2026-05-07 23:55 36.25368 -75.82639 3009 ft 204 kts 164°
2026-05-07 23:55 36.24013 -75.82128 3008 ft 203 kts 164°
2026-05-07 23:55 36.22661 -75.81616 3008 ft 203 kts 164°
2026-05-07 23:55 36.21307 -75.81103 3008 ft 203 kts 164°
2026-05-07 23:56 36.19954 -75.80590 3008 ft 203 kts 164°
2026-05-07 23:56 36.18602 -75.80078 3008 ft 204 kts 164°
2026-05-07 23:56 36.17243 -75.79564 2920 ft 204 kts 164°
2026-05-07 23:56 36.15906 -75.79058 2741 ft 198 kts 164°
2026-05-07 23:57 36.14599 -75.78561 2561 ft 195 kts 163°
2026-05-07 23:57 36.13384 -75.77838 2381 ft 194 kts 150°
2026-05-07 23:57 36.12241 -75.76965 2197 ft 193 kts 149°
2026-05-07 23:57 36.11103 -75.76088 1997 ft 193 kts 149°
2026-05-07 23:58 36.09965 -75.75210 1795 ft 192 kts 149°
2026-05-07 23:58 36.08831 -75.74335 1595 ft 192 kts 149°
2026-05-07 23:58 36.07707 -75.73468 1505 ft 186 kts 149°
2026-05-07 23:58 36.06615 -75.72661 1496 ft 180 kts 153°
2026-05-07 23:59 36.05512 -75.71954 1490 ft 177 kts 154°
2026-05-07 23:59 36.04418 -75.71259 1492 ft 176 kts 154°
2026-05-07 23:59 36.03295 -75.70694 1491 ft 174 kts 175°
2026-05-07 23:59 36.02115 -75.70886 1496 ft 172 kts 195°
2026-05-08 00:00 36.00972 -75.71307 1497 ft 171 kts 199°
2026-05-08 00:00 35.99844 -75.71751 1495 ft 163 kts 199°
2026-05-08 00:00 35.98836 -75.72144 1327 ft 144 kts 199°
2026-05-08 00:00 35.97889 -75.72204 1123 ft 142 kts 158°
2026-05-08 00:01 35.97240 -75.71321 1006 ft 141 kts 112°
2026-05-08 00:01 35.97000 -75.70186 992 ft 134 kts 95°
2026-05-08 00:01 35.97146 -75.69113 994 ft 126 kts 50°
2026-05-08 00:01 35.97839 -75.68497 895 ft 126 kts 20°
2026-05-08 00:02 35.98691 -75.68179 664 ft 126 kts 13°
2026-05-08 00:02 35.99475 -75.67924 535 ft 103 kts 14°
2026-05-08 00:02 36.00141 -75.67689 322 ft 100 kts 13°
2026-05-08 00:02 36.00820 -75.67468 170 ft 100 kts 14°
2026-05-08 00:03 36.01472 -75.67257 16 ft 87 kts 16°
2026-05-08 00:03 36.01803 -75.67142 18 ft 14 kts 356°
2026-05-08 00:03 36.01747 -75.67165 18 ft 17 kts 192°
2026-05-08 00:03 36.01597 -75.67215 14 ft 23 kts 195°
2026-05-08 00:04 36.01475 -75.67232 16 ft 12 kts 122°
2026-05-08 00:04 36.01436 -75.67202 17 ft 8 kts 160°
2026-05-08 00:04 36.01435 -75.67182 17 ft 0 kts 347°
2026-05-08 00:04 36.01437 -75.67182 17 ft 0 kts
2026-05-08 00:05 36.01442 -75.67180 17 ft 0 kts 15°